Lapse_Rate
6.1 6.1 6.2 6.2 6.3 6.3 6.5 6.5 6.4 6.4 6.5 6.6 6.5 6.5 6.5 6.2 6.2 5.9 5.9 5.8 5.5 5.8 6.1 6.0 5.9 5.7 5.8 5.9 6.0 6.0 5.3 5.1 4.9 4.6 5.2 5.6 5.5 5.3 5.0 4.9 4.9 4.6 4.8
6.5 6.2 6.2 6.3 6.4 6.5 6.7 6.8 6.6 6.5 6.5 6.5 6.5 6.6 6.5 6.3 6.2 6.0 5.9 5.8 5.7 5.8 5.9 5.8 5.7 5.8 6.0 6.2 6.2 5.9 5.4 5.4 5.4 5.2 5.3 5.4 5.5 5.4 5.1 4.8 4.7 4.9 4.9
6.5 6.4 6.3 6.2 6.4 6.5 6.6 6.6 6.6 6.4 6.4 6.3 6.2 6.3 6.2 6.2 6.2 6.3 6.3 6.3 6.1 6.3 6.2 6.3 6.2 6.4 6.5 6.1 6.1 6.2 5.9 5.8 5.5 5.1 5.3 5.5 5.5 5.5 5.2 5.0 4.7 4.5 4.6
6.9 6.3 6.5 6.5 6.5 6.5 6.6 6.6 6.6 6.4 6.2 6.1 6.3 6.3 6.3 6.2 6.3 6.4 6.6 6.4 6.0 6.2 6.5 6.6 6.4 6.4 6.5 6.4 6.2 6.7 6.2 6.1 6.1 5.5 5.3 5.3 5.2 5.2 5.1 5.0 4.8 4.9 4.9
7.2 7.2 6.3 6.5 6.4 6.4 6.3 6.3 6.4 6.5 6.6 6.5 6.2 6.2 6.4 6.5 6.5 6.4 6.3 6.2 6.4 6.4 6.6 6.7 6.5 6.4 6.3 6.4 6.2 6.4 6.3 6.3 6.4 5.8 5.2 5.4 5.4 5.6 5.2 5.2 5.1 5.0 5.1
7.4 7.2 7.0 7.2 6.8 6.7 6.5 6.3 6.4 6.3 6.4 6.6 6.8 6.5 6.4 6.3 6.5 6.4 6.4 6.2 6.2 6.3 6.4 6.3 6.6 6.4 6.2 6.1 5.9 6.3 6.4 6.2 6.5 6.3 5.6 5.4 5.3 5.2 5.5 5.4 5.5 5.4 5.5
7.4 7.5 7.5 7.1 6.9 6.9 7.2 7.1 6.2 6.6 6.0 5.9 6.7 6.8 6.9 6.8 6.5 6.4 6.3 6.5 6.7 6.5 6.4 6.3 6.1 6.1 5.9 5.8 5.7 6.2 5.8 6.0 6.5 6.4 5.9 5.3 5.2 5.4 5.8 5.8 5.8 5.8 5.7
6.9 7.1 7.1 7.0 6.8 6.5 7.3 7.0 6.7 6.6 6.8 6.3 6.7 5.7 6.3 6.5 6.4 6.6 6.9 6.5 6.5 6.7 6.9 6.7 5.8 6.3 5.9 5.8 5.9 6.1 5.7 5.8 6.1 6.3 6.2 5.9 5.7 5.7 5.4 5.7 5.9 6.0 6.2
6.8 6.9 6.8 6.9 6.6 7.3 7.3 6.6 6.3 5.8 6.4 6.1 6.2 5.5 6.1 6.6 6.4 6.3 6.5 6.7 6.6 6.5 6.9 7.1 6.9 6.4 6.3 5.9 5.8 5.9 5.4 5.3 5.8 6.4 6.5 6.0 5.7 5.5 5.4 5.8 6.1 6.2 6.3
6.3 6.3 6.3 6.5 6.7 6.6 6.3 6.2 6.0 5.4 5.2 5.5 5.9 6.2 6.4 6.3 6.8 6.8 6.8 6.9 6.9 6.7 6.7 6.6 6.7 6.5 6.4 6.3 6.2 5.7 5.2 5.6 6.1 6.4 6.6 6.2 5.9 5.6 5.7 5.7 6.0 6.1 6.2
6.4 6.4 6.3 6.3 6.4 6.3 6.3 6.4 6.1 5.6 5.4 5.8 6.1 6.1 6.2 6.3 6.8 6.5 7.0 6.8 7.0 6.8 6.6 6.7 6.4 6.4 6.2 6.3 6.1 5.9 5.5 6.1 6.1 6.3 6.5 6.3 5.8 5.7 5.8 5.9 6.0 5.9 6.1
6.3 6.3 6.4 6.4 6.3 6.1 6.0 5.9 5.9 5.6 5.5 5.8 6.0 6.1 6.0 6.1 6.3 6.6 6.7 6.9 6.7 6.5 6.2 6.0 6.4 6.3 6.4 6.5 6.0 6.2 5.9 6.2 6.3 6.1 6.1 6.0 5.8 5.8 5.7 5.7 5.7 5.9 5.8
6.0 5.9 5.9 5.9 6.0 6.0 5.9 5.9 6.1 6.3 6.2 5.8 5.9 6.2 6.2 6.4 6.3 6.3 6.3 6.2 6.0 5.8 5.8 5.6 6.0 6.2 6.4 6.6 6.0 6.2 6.0 5.9 5.9 6.1 5.9 6.0 5.8 5.8 5.8 5.7 5.7 5.6 5.4
6.1 6.0 6.1 6.2 6.3 6.2 6.1 6.1 6.1 6.2 6.3 6.5 6.3 5.8 5.8 5.8 6.2 6.2 6.1 6.1 5.9 5.9 5.8 5.6 5.6 5.7 5.6 6.2 6.3 5.9 5.7 5.9 5.9 5.9 5.9 5.9 5.5 5.4 5.4 5.2 5.3 5.3 5.0
6.4 6.3 6.3 6.4 6.5 6.3 6.3 6.4 6.3 6.2 6.2 6.2 6.1 6.1 6.0 6.4 6.3 6.5 6.6 6.5 6.3 6.4 6.1 5.7 6.0 6.2 5.9 5.7 5.2 5.5 5.6 5.6 5.5 5.5 5.5 5.5 5.5 5.2 5.4 5.0 5.2 5.2 5.0
6.3 6.4 6.6 6.7 6.9 6.3 6.3 6.4 6.4 6.4 6.1 6.3 6.0 6.0 5.9 6.0 6.1 6.4 6.5 6.4 6.9 6.8 6.4 6.4 6.0 5.2 5.3 5.4 5.4 5.3 5.5 5.3 5.4 5.6 5.3 5.2 5.5 5.4 5.1 5.1 5.0 5.0 4.9
6.1 6.4 6.4 6.5 6.5 5.7 5.9 6.7 6.2 6.1 5.9 5.6 5.7 5.7 5.5 5.6 5.8 6.1 6.1 6.2 6.7 6.6 6.3 6.3 6.1 6.1 5.3 5.7 5.4 5.4 5.2 5.2 5.4 5.4 5.3 5.5 5.5 5.4 5.4 4.9 5.0 5.0 4.7
5.9 6.1 6.3 6.5 6.4 6.4 6.5 6.7 6.2 6.0 5.3 5.6 5.5 5.3 5.3 5.4 5.6 5.8 5.7 6.1 6.7 6.7 6.5 6.3 6.3 6.2 6.1 6.0 5.9 5.5 5.5 5.5 5.6 5.4 5.4 5.6 5.7 5.7 4.8 5.2 5.1 4.8 5.0
5.9 5.8 6.0 6.2 6.2 6.4 6.4 6.4 6.2 5.8 5.8 5.5 5.7 5.3 5.3 5.6 5.5 6.1 6.5 7.0 6.9 6.8 6.7 6.6 6.6 6.4 6.2 6.2 6.1 6.1 5.5 5.5 5.3 5.6 5.5 5.6 5.6 5.7 5.2 5.1 4.7 5.0 4.8
6.1 6.0 6.1 6.2 6.2 6.2 6.1 6.0 5.9 5.8 6.1 5.8 5.6 5.4 5.7 5.8 6.0 6.1 6.6 7.1 7.1 7.1 6.9 6.6 6.4 6.4 6.2 6.1 6.0 5.1 5.1 5.2 5.4 5.5 5.7 5.7 5.5 5.7 5.5 5.5 5.3 4.9 4.7
5.8 5.8 5.9 6.0 6.2 6.2 6.2 6.1 6.0 5.9 5.9 6.0 5.8 5.9 5.9 6.0 6.2 6.3 6.5 6.7 6.7 6.7 6.6 6.5 6.4 6.2 6.0 5.6 5.6 5.1 5.3 5.3 5.1 5.2 5.5 5.6 5.5 5.2 5.2 4.9 4.8 4.7 5.1
5.8 5.9 6.0 6.0 5.9 6.2 6.0 6.2 6.1 5.8 6.1 6.2 6.2 6.1 6.1 6.0 6.2 6.5 6.7 6.8 6.8 6.8 6.7 6.6 6.4 6.3 6.1 5.9 5.7 5.5 5.2 5.2 5.2 5.4 5.3 5.4 5.2 5.3 4.9 4.7 4.8 5.2 5.4
5.9 5.9 5.9 5.9 5.8 6.0 5.9 6.2 6.0 5.9 6.0 6.0 6.0 6.0 6.1 6.0 6.3 6.5 6.6 6.6 6.6 6.9 7.0 6.8 6.6 6.5 6.0 5.6 5.4 5.3 5.3 5.4 5.0 5.3 5.3 5.2 5.3 5.0 4.8 5.1 5.3 5.4 5.6
6.0 6.0 6.0 6.0 5.9 5.9 6.1 6.1 6.0 5.9 5.9 6.0 6.1 6.0 6.1 6.3 6.3 6.3 6.3 6.2 6.4 6.8 7.0 6.7 6.6 6.2 5.8 5.5 5.3 5.3 5.3 5.2 5.3 5.0 5.1 4.9 4.5 4.5 5.0 5.3 5.4 5.6 5.7
6.1 6.2 6.1 6.1 6.0 5.9 5.8 6.1 6.1 6.1 6.0 5.9 5.9 5.9 6.1 6.4 6.5 6.5 6.5 6.5 6.5 6.6 6.8 6.7 6.6 6.3 6.2 6.0 5.4 5.3 5.4 5.2 5.2 5.2 5.1 5.0 5.0 4.9 5.3 5.7 5.6 5.7 5.8
6.2 6.2 6.2 6.1 6.0 5.9 6.0 6.0 6.0 6.0 5.8 5.9 6.0 6.1 6.2 6.3 6.3 6.3 6.7 6.9 6.9 6.8 6.9 6.8 6.7 6.6 6.2 5.9 5.6 5.4 5.4 5.2 5.4 5.5 5.4 5.1 5.1 5.3 5.6 5.7 5.8 5.8 5.9
Wind_Speed
10 9 8 8 8 6 7 7 6 4 5 6 6 6 7 8 7 6 6 5 5 5 3 5 5 4 1 1 2 1 2 2 2 1 1 1 4 7 8 7 7 5 5
11 9 10 8 8 8 8 8 5 6 5 6 5 5 7 9 8 8 8 7 7 8 7 6 6 4 5 4 3 5 2 2 2 3 1 1 1 4 7 6 7 8 6
6 7 7 6 6 7 6 5 5 6 7 6 5 6 7 8 8 9 9 8 9 9 8 9 9 7 5 4 4 3 4 2 2 2 2 1 1 3 3 3 3 4 4
8 7 6 6 4 4 4 5 5 5 8 8 9 8 8 8 8 9 9 9 9 8 9 10 8 9 7 6 3 4 3 3 3 2 2 2 1 2 1 2 3 2 2
8 8 6 5 5 2 2 4 5 7 9 9 8 9 8 7 7 9 9 9 10 9 9 8 9 11 11 8 6 7 6 4 3 3 2 2 2 3 3 3 2 1 1
6 6 6 9 8 5 5 1 4 8 9 7 8 9 8 8 11 13 11 9 11 10 10 10 11 13 12 15 15 13 13 8 6 4 4 4 3 3 3 3 3 2 1
5 6 8 8 8 9 5 5 6 9 7 5 3 6 9 10 14 16 16 11 11 11 12 11 11 6 9 10 13 15 16 15 11 8 6 5 5 7 6 5 3 3 3
0 4 2 4 6 7 9 5 2 4 6 6 4 16 10 10 8 9 13 11 10 11 13 13 12 8 8 6 6 7 6 6 8 8 7 5 4 6 7 5 5 4 3
0 2 1 3 4 4 4 4 1 2 6 3 3 5 6 6 4 4 2 7 7 5 4 5 7 8 10 11 8 7 4 3 3 9 7 4 8 11 13 6 5 4 2
1 3 4 4 5 4 3 3 3 3 4 2 5 5 9 7 4 3 2 3 5 4 5 8 14 12 11 14 11 8 7 6 7 6 5 7 10 13 15 4 6 5 3
4 4 3 3 3 3 3 2 3 3 3 5 5 4 5 4 4 6 6 4 5 5 5 5 5 9 12 14 10 9 8 8 7 6 6 5 5 6 5 5 8 5 4
3 4 4 4 3 2 3 3 3 3 3 4 4 4 3 4 5 7 10 9 2 3 4 3 5 11 11 11 8 10 12 8 6 7 6 4 3 4 4 5 5 4 4
2 4 5 5 4 4 4 4 3 3 3 4 4 4 4 3 3 4 8 7 7 2 2 2 5 8 8 8 8 12 11 5 6 6 5 4 3 3 6 5 5 5 5
5 5 4 3 3 2 2 3 3 3 3 3 4 3 4 2 2 1 3 2 4 4 6 3 4 5 4 4 4 6 5 5 7 6 4 3 3 3 3 3 3 3 1
3 4 3 1 3 2 1 2 2 2 3 2 1 1 1 1 2 3 2 3 3 5 6 3 3 2 3 2 3 5 4 4 4 3 3 3 3 3 2 2 3 3 3
4 3 1 0 1 1 2 2 1 3 7 10 11 5 0 2 3 6 6 9 11 9 3 2 2 2 2 3 3 4 3 6 4 3 3 4 3 2 3 2 3 0 3
5 1 1 1 2 2 3 2 2 2 5 8 9 9 4 3 8 9 9 8 5 2 1 2 1 2 3 3 4 4 4 3 4 4 4 4 5 4 5 3 2 3 2
2 4 1 2 3 3 3 3 1 1 1 1 3 4 7 6 6 8 10 8 2 1 2 2 3 3 3 4 4 4 6 6 5 4 6 5 5 5 2 5 6 3 3
1 2 2 2 3 3 3 3 2 3 1 1 2 1 4 2 8 7 3 1 2 2 3 2 3 3 3 4 4 5 6 6 6 5 6 5 4 4 5 3 4 4 5
3 4 4 3 3 2 3 3 1 2 1 1 1 1 3 4 3 2 2 1 1 2 2 2 2 2 2 3 4 5 5 7 6 5 4 5 5 4 4 4 3 2 3
2 3 3 4 2 1 2 1 2 2 3 3 2 2 6 2 3 3 4 3 2 2 2 1 2 2 2 3 4 6 6 6 6 6 6 5 5 6 4 3 1 3 4
2 3 3 3 2 2 2 2 2 1 2 3 2 0 2 1 2 3 3 3 3 2 2 3 3 3 3 4 5 6 6 6 6 6 6 7 5 4 4 2 3 4 4
2 2 2 1 1 3 3 3 3 3 3 3 2 1 2 2 2 3 3 3 3 2 2 2 3 3 4 5 8 8 7 7 6 8 8 5 4 4 3 4 5 4 4
1 1 1 2 1 2 2 4 3 3 3 4 3 3 3 3 2 3 3 3 4 3 3 2 2 4 4 6 7 9 9 12 15 12 9 5 4 4 5 4 5 6 5
1 1 1 2 1 1 2 2 4 3 3 3 4 3 2 2 2 2 3 3 4 4 4 4 4 7 8 9 9 12 15 18 14 13 11 8 5 8 6 6 7 6 7
1 1 1 1 2 2 2 3 3 3 4 4 3 2 3 3 2 2 3 5 5 5 5 6 7 10 12 12 13 12 12 14 14 16 11 8 6 6 6 7 9 6 8
Wind_Direction
193 208 194 202 197 202 216 227 226 225 223 219 208 208 206 207 204 189 209 212 202 197 178 176 183 183 158 103 121 128 147 186 247 203 152 157 149 166 159 153 176 189 206
200 199 207 203 191 202 215 225 213 233 239 236 228 216 213 209 203 200 209 205 196 204 188 184 189 173 197 216 191 161 190 185 201 251 21 108 121 166 160 164 175 199 210
182 197 198 193 189 217 224 208 198 214 234 243 246 232 228 221 205 210 204 213 218 207 196 197 195 183 211 215 231 185 161 172 175 188 191 212 109 168 140 152 184 203 222
173 180 186 184 204 209 214 215 209 219 237 235 234 237 229 229 224 221 214 205 223 215 210 209 194 199 221 222 172 216 171 161 157 189 176 167 127 123 133 153 173 182 204
169 164 162 152 159 139 346 309 269 230 233 230 232 232 231 227 229 227 218 212 219 217 214 212 201 206 218 215 178 199 170 181 169 168 162 167 164 150 186 172 161 139 236
137 122 136 123 118 120 117 29 298 268 261 240 223 237 237 238 224 215 220 225 216 212 211 214 213 232 225 221 196 196 180 177 172 178 175 194 185 154 155 168 155 177 185
112 149 164 161 171 153 159 65 357 325 285 319 317 280 256 246 232 223 223 229 217 207 199 200 209 213 221 223 216 207 205 184 160 162 170 191 183 186 153 162 167 170 186
51 41 353 49 11 359 31 79 81 272 270 248 78 294 284 277 266 253 242 239 233 215 207 197 190 178 196 213 208 221 240 212 185 158 176 186 197 168 179 166 159 137 90
181 122 187 36 15 5 15 343 16 303 289 346 324 235 278 288 4 47 324 242 235 234 204 164 165 179 213 215 205 213 197 225 176 129 149 185 186 172 155 134 151 144 149
338 253 213 211 207 200 221 249 214 191 233 250 245 239 247 257 100 86 85 266 200 178 168 187 207 219 251 186 185 167 174 200 175 132 109 103 125 150 158 175 154 158 123
319 321 341 327 305 275 277 233 242 242 251 254 266 270 286 290 290 250 208 223 221 201 199 212 222 188 179 179 164 171 191 164 164 136 130 134 134 144 149 154 169 149 146
282 289 300 292 276 278 258 278 271 247 276 290 290 296 278 279 249 259 245 210 263 233 254 239 213 166 175 171 176 166 159 142 148 145 145 159 153 163 171 168 165 146 78
312 284 272 271 266 266 266 270 254 257 276 282 280 279 282 253 250 270 265 226 207 230 279 220 154 171 193 172 186 157 148 150 151 146 162 171 164 153 144 152 151 170 178
231 241 263 273 308 258 215 212 216 224 226 248 276 270 280 288 285 266 233 223 219 187 137 109 109 114 114 144 141 165 162 163 160 168 171 122 114 142 166 156 154 141 140
213 225 236 351 6 358 298 304 284 245 233 219 233 260 236 279 286 200 174 133 126 114 104 83 88 106 131 143 151 166 169 149 154 141 137 148 168 178 153 181 139 146 177
226 249 2 118 261 268 300 292 356 353 347 329 297 259 291 320 211 157 97 99 115 133 91 120 126 143 183 181 174 156 146 160 142 142 150 150 131 136 116 106 61 169 151
232 193 140 314 291 287 232 224 220 53 57 358 329 340 333 128 109 125 116 94 127 72 105 131 165 198 218 206 199 175 151 130 128 144 143 132 104 93 66 360 192 178 139
282 93 184 233 257 271 301 315 324 239 157 246 15 339 320 59 73 109 125 114 93 300 230 219 218 206 195 191 176 159 147 153 150 146 125 119 117 108 152 219 225 152 134
255 187 208 255 265 269 293 294 332 318 46 217 172 339 310 335 99 110 150 130 189 204 214 223 219 210 186 172 160 151 156 164 156 155 142 131 140 181 204 202 162 138 118
256 215 226 269 297 283 269 291 289 270 316 165 202 205 177 215 137 171 139 118 284 283 274 247 216 203 172 163 155 158 155 152 152 155 152 152 180 164 139 152 158 139 150
299 290 274 271 270 266 227 277 300 248 234 229 206 193 212 190 154 140 156 180 202 208 214 204 166 173 170 151 146 156 156 154 158 164 163 152 147 137 148 107 107 192 163
281 295 301 301 316 311 333 24 325 314 244 227 242 15 57 227 154 156 152 175 166 161 168 169 173 175 175 163 161 155 149 153 157 158 148 150 153 138 117 123 154 172 161
265 280 292 304 311 328 332 338 313 280 283 292 293 218 184 216 176 160 166 141 132 124 128 132 150 160 169 169 173 165 157 166 153 150 145 152 144 133 152 177 166 156 163
307 184 316 320 336 322 312 324 335 295 284 284 280 257 235 217 195 162 144 137 131 127 132 138 163 166 155 153 157 161 149 147 149 155 145 142 171 161 156 157 166 148 133
1 125 326 320 309 319 309 309 322 335 343 306 285 278 282 252 227 181 161 148 137 143 158 144 162 168 169 163 156 150 153 156 155 155 156 142 162 167 154 158 146 133 131
19 264 272 287 300 292 298 310 298 311 329 342 346 266 251 241 223 182 161 154 157 166 166 153 162 171 164 156 151 150 158 163 166 166 164 161 164 158 152 149 139 133 133